Back to catalog

STARLINK-34002

AliveCommunicationsVLEO
NORAD 63856·PAYLOAD·🇺🇸 United States

Launched May 7, 2025 from Cape Canaveral Space Force Station

Loading…

Next Passes (next 24 hours)

TLE

FreshSource: CelesTrak SupGP

Epoch: Sep 14, 2026, 14:58 UTC

1 63856C 25093W   26257.62409722 -.00010969  00000+0 -39720-3 0  2578
2 63856  43.0027  90.9420 0001562 266.0109 198.4135 15.27592511    18

Track STARLINK-34002 in real time with AllMySat

Download on the App Store